BUS_NAME,NETWORK_OPERATOR_ID,CONNECTION_TYPE,PARTY,UNIT_OF_MEASURE,FLOW,STATUS,MD_DATE,TP1,TP2,TP3,TP4,TP5,TP6,TP7,TP8,TP9,TP10,TP11,TP12,TP13,TP14,TP15,TP16,TP17,TP18,TP19,TP20,TP21,TP22,TP23,TP24,TP25,TP26,TP27,TP28,TP29,TP30,TP31,TP32,TP33,TP34,TP35,TP36,TP37,TP38,TP39,TP40,TP41,TP42,TP43,TP44,TP45,TP46,TP47,TP48,TP49,TP50,CHECKSUM
TKB2201,ECNZ,GG,ECNZ,kWh,I,F,01/03/1999,66600,67420,66610,66830,66980,67050,66920,67200,67510,66760,66940,66700,66510,67710,66770,66310,68810,65690,66480,67430,66560,66670,67090,68260,66470,66620,66100,66010,66010,68400,67790,67990,67480,66040,66180,66180,68180,67190,66920,67330,66490,67110,66620,67550,66370,67520,66180,67280,3213820
TKB2201,ECNZ,GG,ECNZ,kWh,I,F,02/03/1999,67680,66390,67190,66040,66210,67120,67130,67660,67940,66590,67210,67190,66550,64510,37010,36530,36370,36870,36700,36760,36660,36530,36520,36430,36480,36880,36670,36500,37010,36720,36660,36550,36310,36460,36470,37110,36540,36440,36550,37550,36630,36570,36690,36620,36670,36560,36300,36800,2181530
TKB2201,ECNZ,GG,ECNZ,kWh,I,F,03/03/1999,35910,36430,37360,35740,36550,36950,36570,36460,36680,36740,37370,36710,36670,36800,36190,36640,36780,36510,36780,36440,36440,36470,36810,37020,36270,36940,36370,36890,36790,36460,36410,36590,36350,36820,36920,36400,36810,36530,35830,36640,36950,36670,36250,36660,36550,36580,36480,36660,1756840
TKB2201,ECNZ,GG,ECNZ,kWh,I,F,04/03/1999,37050,36420,36610,36620,36530,36380,36960,36390,36870,37350,36170,36270,36970,36790,36480,36790,36600,36410,54690,63660,65580,64510,65080,65790,64430,64360,65080,64230,65410,65420,65280,64850,65640,65180,63670,65460,64790,65370,63170,64610,66980,66200,64030,65840,63730,65510,63870,65260,2597340
TKB2201,ECNZ,GG,ECNZ,kWh,I,F,05/03/1999,65580,64840,63820,65320,65790,65940,65910,65250,65370,66090,67200,66480,67080,66560,66820,65930,66980,67060,67590,68250,66640,65870,65800,66130,66890,68000,68930,66200,65500,67510,66620,66780,67230,67450,66660,65130,68130,67230,66330,68030,67720,66720,65550,66830,64730,66790,68590,67950,3195800
TKB2201,ECNZ,GG,ECNZ,kWh,I,F,06/03/1999,68260,66530,64480,66020,67340,67730,68640,68680,66840,65870,65830,67670,66230,66850,67830,67270,66080,67590,67160,66460,67350,67820,66210,66380,67440,66890,67840,66520,66720,68350,68250,67170,68510,67430,67220,66720,67410,67620,66510,66840,68670,67580,66250,67280,67410,68390,67260,66690,3224090
TKB2201,ECNZ,GG,ECNZ,kWh,I,F,07/03/1999,67680,67060,67710,67430,67540,67300,68030,67640,67050,67460,67460,67790,66850,67820,66840,67630,68600,68220,65740,68820,67590,67820,66740,68250,68370,65160,66930,68640,67030,66280,68390,68400,67950,67810,67400,65870,67370,67350,67540,67340,68050,67490,66780,66360,66680,68440,67840,67560,3238100
TKB2201,ECNZ,GG,ECNZ,kWh,I,F,08/03/1999,67490,67360,67240,67430,67130,68110,67290,67890,68100,67620,67690,66850,66200,68430,66620,68230,66490,64990,67850,68350,67590,67330,67990,69620,67190,67150,66210,67430,67290,67610,67870,68560,66500,67250,67530,69030,68820,68120,68740,69910,68150,68510,68200,66770,66560,66560,66930,67200,3243980
TKB2201,ECNZ,GG,ECNZ,kWh,I,F,09/03/1999,68480,68660,68720,69400,69200,69200,69580,68350,68410,68900,69070,69060,68600,69840,69290,69410,68750,67590,68340,68120,67120,65940,66380,66010,66420,66350,67380,66360,65110,65020,65890,66570,67320,67970,68400,70000,68380,68190,70200,70170,68990,68710,67110,67390,66840,64020,62900,61600,3249710
TKB2201,ECNZ,GG,ECNZ,kWh,I,F,10/03/1999,61650,64060,66380,67670,67140,68940,68080,67260,67910,65680,65750,64930,64540,63590,62980,63480,63630,63590,62770,61240,62770,62860,64350,64480,66350,68840,67770,66790,67250,68640,68700,67820,67160,68350,68290,67130,67820,67090,64650,67460,63950,62240,61960,63740,62170,63120,63930,63050,3140000
TKB2201,ECNZ,GG,ECNZ,kWh,I,F,11/03/1999,62020,62090,64460,62740,62650,63930,63190,62270,63600,63000,62970,65570,66210,68200,68120,67950,69940,70430,69370,67150,65800,66570,66230,65610,66080,66090,64740,65600,65320,65150,65220,64320,64790,65240,65330,64400,64770,65160,65750,64600,65000,64680,64800,63990,65440,65490,65890,65490,3133410
TKB2201,ECNZ,GG,ECNZ,kWh,I,F,12/03/1999,63800,65080,66050,64790,64570,65530,65270,64420,65010,65160,64980,64940,65070,65400,65720,65140,64240,64860,65410,65640,64970,65310,65970,66610,65710,65120,66480,66640,66650,66120,66300,65190,66300,65830,64990,66800,66120,65040,65040,66680,65630,64770,66000,65710,64530,65960,65400,66150,3143100
TKB2201,ECNZ,GG,ECNZ,kWh,I,F,13/03/1999,65560,64660,65620,65350,66440,65150,65120,65420,65730,66440,65800,64670,65210,66070,64970,65550,65660,65650,65460,65470,65000,65830,65560,65760,66250,64910,65390,65630,64740,65680,65360,66230,66850,65120,63980,63830,63630,64490,63990,64330,64200,63140,64270,64150,63450,64430,64650,64350,3125200
TKB2201,ECNZ,GG,ECNZ,kWh,I,F,14/03/1999,64110,64280,65990,64950,65240,65340,63980,64880,65430,65500,64710,65440,64200,64680,65240,65080,65360,65450,65530,64390,64750,64750,65270,65330,64570,64430,65300,65090,64780,66200,63720,64440,66170,65940,64180,65120,65530,65590,65640,64730,64190,64650,64090,65330,64780,65470,66120,65230,3121170
TKB2201,ECNZ,GG,ECNZ,kWh,I,F,15/03/1999,65190,63970,65050,64710,65900,65810,65210,64700,64370,65420,66460,63990,65090,66250,64140,64400,64990,65020,65030,65450,64520,64680,66150,64520,64370,65700,64600,64680,66160,65430,63800,65630,64870,64760,65990,65130,64050,65940,65140,65310,64790,64450,64280,65690,65100,64250,65710,65900,3122750
TKB2201,ECNZ,GG,ECNZ,kWh,I,F,16/03/1999,63780,64480,65700,64580,65880,65650,65430,65230,64870,65470,64870,64210,65980,65540,64720,63910,64550,65080,65270,65810,63960,65960,65330,64920,64320,64410,66190,64240,64980,65520,65990,64250,65560,66570,65170,65920,65380,65680,64000,66010,67100,66720,64970,64820,66160,65030,65350,64350,3129870
TKB2201,ECNZ,GG,ECNZ,kWh,I,F,17/03/1999,65030,62840,63410,65090,64790,63890,65020,64970,63990,63450,63680,63660,64830,64450,63610,62780,64050,64530,64080,64950,64310,64750,63510,63280,64960,66970,64750,64780,66060,65650,66540,67670,66680,65340,68110,66950,67000,67210,66190,68330,66950,65250,66670,66700,67230,66960,67550,67650,3137100
TKB2201,ECNZ,GG,ECNZ,kWh,I,F,18/03/1999,70180,66490,66850,68060,68590,69510,69010,67840,67640,66690,68670,68350,68010,67800,67790,67150,68070,68000,67720,66780,69670,68650,67980,67200,67660,68820,67610,67080,67760,68940,68340,67920,65530,64900,64950,64510,65070,64470,64550,64930,65590,66130,66490,68180,67490,67940,67700,67560,3232820
TKB2201,ECNZ,GG,ECNZ,kWh,I,F,19/03/1999,67220,65680,64970,64770,65700,65680,65360,65660,65180,64350,64730,65440,65250,65890,66040,65140,64390,62840,64860,61150,62370,64150,64820,63710,54680,53740,54870,53120,57460,59660,60240,57120,56060,59550,60720,61200,61320,59410,58180,60060,59430,58590,57290,59080,57810,58040,58610,59230,2950820
TKB2201,ECNZ,GG,ECNZ,kWh,I,F,20/03/1999,59230,58980,59530,60730,60150,60070,60990,60880,60840,60320,59570,59690,60950,60290,60850,59590,61020,61080,60480,60120,57220,59960,60590,60090,60650,60350,59630,59460,59570,60640,61290,60910,61320,59610,57930,60640,60110,57370,56360,59240,72320,71840,71540,72850,71870,71940,71920,71180,2973760
TKB2201,ECNZ,GG,ECNZ,kWh,I,F,21/03/1999,71810,69280,69220,70290,70910,70370,71070,70870,70750,70910,70340,71290,72310,72690,72790,71850,72710,72190,72100,71260,72880,71780,71540,71810,71560,72090,72350,72260,72770,72530,72190,72660,72750,73020,72310,72320,71950,72430,72120,72470,72500,72080,72380,73090,72450,71320,72580,71640,70510,70300,3589650
TKB2201,ECNZ,GG,ECNZ,kWh,I,F,22/03/1999,70020,72240,73060,72620,72710,73020,72980,70650,72590,72830,72420,72590,71960,71720,71170,71620,72770,73970,71080,70360,71170,71920,72190,73030,72940,67800,65340,65320,65740,65580,65900,66460,66150,61170,61150,61620,61490,61080,60910,60600,61760,61150,60250,62270,60530,61710,62280,61240,3251130
TKB2201,ECNZ,GG,ECNZ,kWh,I,F,23/03/1999,63220,61810,61450,62210,61680,62360,61720,61890,63430,61540,62370,61470,61390,61130,60380,60550,61470,61090,61320,61610,60500,61580,61550,60330,62310,63740,64320,63200,62590,63630,62740,63240,62190,61350,60850,60360,61430,61650,60160,61320,61650,60350,60740,61280,61240,61370,61400,61530,2962690
TKB2201,ECNZ,GG,ECNZ,kWh,I,F,24/03/1999,61410,60690,61630,60790,61170,61320,61150,60580,61980,60540,61600,60750,61710,61750,60770,60840,60450,62060,61790,61290,60180,60520,61770,61100,61580,60660,61380,61380,61510,60900,62040,61830,60680,61330,60870,61690,59920,61480,60710,60950,60990,61030,60700,61810,60890,61270,61180,61180,2935800
TKB2201,ECNZ,GG,ECNZ,kWh,I,F,25/03/1999,61470,60510,61100,61000,61150,61560,61420,61440,61360,61020,60880,60920,61630,61640,60930,61030,60990,60310,61120,60930,61250,61250,61350,61980,61180,59930,62930,60510,61500,59900,60490,61200,62110,62350,61210,59990,61150,62620,59990,59890,62310,61310,60930,62170,60720,60830,61340,60910,2935710
TKB2201,ECNZ,GG,ECNZ,kWh,I,F,26/03/1999,61470,60810,61130,61440,61860,60760,60710,61960,60990,60970,61740,61390,60550,62670,62680,60530,60470,58550,60230,60630,61160,62060,62530,61280,60960,62070,61200,60370,60070,61630,61370,62780,61710,59360,60440,60520,61090,64160,61640,62040,62600,62210,61100,63200,62000,61810,62380,62650,2947930
TKB2201,ECNZ,GG,ECNZ,kWh,I,F,27/03/1999,61270,61580,63180,61790,61320,60710,61420,60920,61850,60750,62180,62100,61840,62270,62320,62680,61810,62090,62090,62100,61910,62160,61750,64920,64940,65840,64970,66050,68620,68620,69230,68640,70300,67780,68990,65210,61880,64150,61890,61500,62510,64290,64350,64120,63260,63200,61750,62660,3051760
TKB2201,ECNZ,GG,ECNZ,kWh,I,F,28/03/1999,63720,62760,62130,63900,62630,63510,62710,63460,63190,62890,63310,63570,63100,63310,63070,63010,63720,62190,63590,62420,64360,62080,63540,62570,63010,63830,63870,62080,62270,63790,63320,63930,62740,62700,63220,63230,62620,63800,62790,61960,63610,63860,62800,63340,63360,63950,62960,62380,3030160
TKB2201,ECNZ,GG,ECNZ,kWh,I,F,29/03/1999,62450,62930,63470,61770,62110,63180,63980,64660,62540,62840,64160,62780,63260,63810,63430,61720,63850,63290,62780,62800,28530,24480,24460,23040,22560,35530,39740,39540,37430,68430,71290,69260,65140,63580,61440,61390,61520,62060,60900,59670,61440,61010,60280,62730,62270,59800,61220,61620,2732170
TKB2201,ECNZ,GG,ECNZ,kWh,I,F,30/03/1999,60550,60950,61640,60420,61880,63250,62960,61260,61560,62240,62360,62530,62630,62480,61170,62370,61090,60350,61560,61950,62780,61580,63390,62070,61060,61590,63820,61740,60890,62080,62310,62210,62070,62730,63180,61330,61490,61580,60890,60630,64820,65970,65610,68610,67740,67470,65220,65050,3005110
TKB2201,ECNZ,GG,ECNZ,kWh,I,F,31/03/1999,64620,66680,65410,64010,62680,62040,61060,61170,61810,61950,60990,61020,61540,60730,61250,61350,59590,60960,61670,61110,61860,59710,62250,64730,38950,32230,36480,36440,36380,37100,35920,37080,5170,110,0,0,1900,2420,440,230,46980,62320,60900,62040,60240,61780,61170,61500,2267970
TKB2201,ECNZ,GG,ECNZ,kWh,I,F,01/04/1999,61810,68150,68200,67650,67820,68050,68260,67580,67970,68070,67800,67570,68350,68220,68210,67490,67810,68570,68270,66450,65200,68140,66090,64600,63250,64560,65690,64920,66410,65190,64430,65700,65560,66470,63360,63330,66330,65710,63160,65580,56230,53930,57810,64290,65020,65850,67210,65790,3152110
TKB2201,MERI,GG,MERI,kWh,I,F,02/04/1999,66090,63040,62780,63030,62980,63810,63430,63380,62880,62920,63470,63270,63220,62830,63530,63120,63090,62230,62330,63500,63960,63920,62430,61570,63440,63750,63200,63010,62540,63320,63280,63380,63890,62910,62430,62150,64320,62480,62760,63490,64360,62810,62560,63800,62680,63470,63700,63360,3033900
TKB2201,MERI,GG,MERI,kWh,I,F,03/04/1999,62720,62200,63600,62610,63670,63850,62630,62420,62720,63130,63960,63820,63240,62630,62850,63590,63730,63110,63160,62160,62970,64240,62370,62130,63770,63860,63240,62430,62970,63360,63080,63490,63850,63250,62470,62980,62970,63130,61720,63230,62450,63130,63980,64310,62600,63670,63750,63040,3030240
TKB2201,MERI,GG,MERI,kWh,I,F,04/04/1999,63220,61330,62770,64990,63070,63110,62900,62900,63340,63670,63130,62650,63600,63110,62640,64400,63860,47000,23380,22990,23640,53300,54150,53050,59520,63080,63600,62470,63140,63800,63750,63110,63690,62710,62570,63460,58750,44500,44070,45140,44200,57080,64270,62690,62880,62770,64130,63120,2780700
TKB2201,MERI,GG,MERI,kWh,I,F,05/04/1999,65530,68040,68980,66570,68240,67970,68150,69070,68180,67550,68570,67890,67600,65210,63550,64860,65540,65200,65800,64020,62840,62500,52590,31860,2790,0,0,0,0,0,0,0,0,3430,26770,26420,27280,26590,26390,26780,26360,26720,24430,19570,19330,19390,19870,19240,1887670
TKB2201,MERI,GG,MERI,kWh,I,F,06/04/1999,19570,19090,19810,18930,19860,19390,19390,19350,19610,19140,19540,19530,57470,72260,73740,61310,57900,58670,58250,57980,58380,57280,58200,58180,57920,58360,64440,67800,68250,66620,65980,66720,65510,65920,67540,73710,77340,69400,63840,63350,64250,64780,64450,65090,64760,64430,64590,64240,2542120
TKB2201,MERI,GG,MERI,kWh,I,F,07/04/1999,65160,64350,63950,64650,64720,64220,64270,65840,63750,63950,65440,64850,66360,65510,65480,66060,66670,61960,38730,38840,39280,39280,39540,37200,36390,36550,36630,36680,36730,36860,37130,36730,36840,36620,36620,36610,47460,65220,65040,66280,66050,65010,63630,65400,63350,63880,63920,62410,2598100
TKB2201,MERI,GG,MERI,kWh,I,F,08/04/1999,60080,36520,21920,26350,29280,22870,21610,21920,22410,21530,22190,21650,22270,21540,21930,21590,22130,21580,21500,21900,20700,19570,19410,19100,19220,19720,32870,38730,38870,35960,35160,35140,39340,38760,38610,36330,36370,38810,42130,60650,49360,48920,49000,48490,48060,49120,60250,63400,1584820
TKB2201,MERI,GG,MERI,kWh,I,F,09/04/1999,63480,62060,64260,62620,62900,63170,65860,64950,36870,38270,38750,38390,38660,38290,38340,38290,38440,38300,38130,38240,38410,38440,38300,38390,38320,38470,38260,38480,38490,38860,42110,40480,34090,34190,34180,33870,33870,34040,34170,34020,34050,33680,33870,34450,48610,65690,66950,66420,2091430
TKB2201,MERI,GG,MERI,kWh,I,F,10/04/1999,66950,65140,64880,67220,65380,65870,66540,66150,65560,65860,66810,65420,66440,65560,66460,65970,65340,67090,65030,66770,64990,65900,65320,67490,65690,65620,66630,65520,65430,67290,65710,66370,66460,65560,65800,66970,66130,65540,64200,63850,65240,66150,65550,67960,66330,65930,66680,65510,3166260
TKB2201,MERI,GG,MERI,kWh,I,F,11/04/1999,66190,67290,64870,65770,66630,65940,65430,67550,66500,66110,65010,65420,65610,67230,66490,66150,66960,65390,66900,64890,65420,65600,66270,65720,65590,64270,64160,64470,64720,64210,63900,63310,64390,62930,62520,63060,63000,63100,61980,64130,63350,62860,62200,64420,62530,63040,63220,63400,3110100
TKB2201,MERI,GG,MERI,kWh,I,F,12/04/1999,63420,62400,62750,62860,63520,62930,63160,62800,63880,64060,62310,64000,63320,62540,63940,62740,62590,62510,63620,63390,60610,63720,64290,63470,61310,65100,64330,63440,62850,62410,62320,64240,64100,63100,62310,63260,65750,67010,65810,65960,66190,65240,65060,64330,64240,65030,64760,63980,3056960
TKB2201,MERI,GG,MERI,kWh,I,F,13/04/1999,64660,63960,64620,65120,66360,65840,66010,65580,66990,66610,65400,65650,66640,65670,67000,66770,66700,64750,65280,64700,66970,66790,65420,64230,64340,66000,65010,63320,64020,64340,62540,63790,66660,64250,65140,64250,63760,62690,63570,64390,63840,63810,64980,64170,63360,64050,63640,64170,3117810
TKB2201,MERI,GG,MERI,kWh,I,F,14/04/1999,64790,64030,63600,64160,64020,63440,65140,64400,63890,63820,61670,53560,52160,35510,37010,36950,36890,36360,36830,39000,39300,39410,39240,39120,39070,38900,39420,39230,39060,39340,39410,39160,39310,38810,37230,46970,65880,64820,64570,60620,60570,61150,60980,61740,60870,61150,61450,60810,2444820
TKB2201,MERI,GG,MERI,kWh,I,F,15/04/1999,63840,65380,65950,65790,63910,62730,62830,62940,62970,63360,62820,62850,63810,63700,63410,63110,63230,63650,62820,62280,62590,63040,63820,62550,62310,63540,64180,62630,62370,63270,62810,63160,63890,63540,62300,63430,61650,63460,64360,63190,62040,64360,63170,63120,62260,63850,62480,62790,3037540
TKB2201,MERI,GG,MERI,kWh,I,F,16/04/1999,63480,62600,63590,62960,63370,63050,63530,62790,63330,62560,63640,62840,63920,62660,62780,65900,66460,64850,65880,65380,66710,65890,65840,65640,66190,66750,66800,65410,64880,63060,62570,63940,64100,63400,63100,63240,62210,63040,63290,63080,62230,62950,62850,64300,62730,62600,62990,63490,3068850
TKB2201,MERI,GG,MERI,kWh,I,F,17/04/1999,62930,62840,62750,63330,63600,63170,64060,62840,62550,63100,63820,63080,63270,62560,63450,63890,65140,64320,65040,64960,64170,64180,64340,64420,64280,64590,64450,64310,64980,64700,64420,65350,64980,63710,64560,64550,64780,64060,64980,65100,64110,63740,65170,64750,63610,66180,63530,64470,3077170
TKB2201,MERI,GG,MERI,kWh,I,F,18/04/1999,65610,63450,65270,64600,64630,64540,64020,64280,64700,64960,65030,64300,64360,64430,64150,64940,65210,64610,65050,64020,64410,63950,64390,63740,66220,64600,62920,63770,65440,64590,64550,63920,64380,64870,65440,64370,64100,64750,64260,66180,64250,64430,64560,64880,64210,64760,64680,65120,3099900
TKB2201,MERI,GG,MERI,kWh,I,F,19/04/1999,64430,64330,64570,65010,64950,63810,64110,64870,65320,64040,64770,64230,64630,64850,46440,39340,39370,39370,39370,38600,38180,38840,38500,38440,38160,38240,38550,38360,38490,38610,38240,38800,38170,38520,38570,38220,38520,38430,38430,38420,37950,38020,38720,38170,37900,38550,38760,38290,2221460
TKB2201,MERI,GG,MERI,kWh,I,F,20/04/1999,38470,38230,38330,38400,38640,6490,0,1320,2670,2290,2050,5560,38120,38550,38240,38000,38520,38450,38260,38090,38530,38730,38020,38120,38290,38400,38200,38230,38160,38630,38610,38320,38080,38600,38170,38600,38220,38070,38450,38340,38260,38230,37730,20460,4800,4880,4850,4800,1439460
TKB2201,MERI,GG,MERI,kWh,I,F,21/04/1999,4820,4470,4800,4780,4760,4930,4480,4940,4820,4450,4350,5700,41210,38690,38000,37890,38020,37840,38110,37820,38110,38110,37680,38270,37790,37610,38390,37720,37750,38450,37520,38060,37800,37860,38320,37850,37870,37890,37270,37900,37360,38050,37870,38290,37950,38490,39550,38720,1429380
TKB2201,MERI,GG,MERI,kWh,I,F,22/04/1999,45300,42050,43590,44970,43220,44070,44820,42590,43180,45200,44070,44870,45240,42160,43270,43190,61530,62740,61490,60730,59330,60550,57220,60740,60610,61050,61960,60450,61630,60670,61460,61910,59480,56130,62070,62990,62160,62780,63430,61160,62850,65380,62320,62850,62480,65010,63660,61620,2672230
TKB2201,MERI,GG,MERI,kWh,I,F,23/04/1999,62800,62890,49300,30920,24250,24740,23780,24490,25350,28100,29340,33110,35890,64060,66290,66560,65960,65540,66940,65860,64750,64650,64010,64860,61750,62980,64510,65480,64840,63990,64630,65700,65800,65330,66020,66010,63760,64200,64130,65230,65190,64520,65510,65560,64360,52250,56480,56830,2699500
TKB2201,MERI,GG,MERI,kWh,I,F,24/04/1999,57590,58140,58220,44830,28270,21040,26150,23500,24450,24410,24520,24440,27280,26170,25780,33730,46530,51180,64730,65980,64610,64680,66490,63650,65320,64810,64390,65340,65290,65380,65090,65220,65630,65010,65340,63660,65030,65010,65120,64630,64700,65930,64600,66130,64460,65110,65450,64420,2577440
TKB2201,MERI,GG,MERI,kWh,I,F,25/04/1999,58460,20060,9230,9150,9290,9530,9810,9470,9780,7390,4540,5560,4600,4820,4270,4110,5070,4890,33300,59560,60560,65080,66090,65280,65430,67490,66440,65360,55040,48120,48290,49400,50130,47680,49870,65250,65440,66450,65760,66470,65860,65470,65800,66130,65850,66960,65760,56670,2001020
TKB2201,MERI,GG,MERI,kWh,I,F,26/04/1999,31330,23910,21880,24920,8530,3910,4550,5330,4730,4550,4320,8640,9160,4710,4730,3160,2440,1790,1560,1840,2070,2860,2490,1780,2320,5240,4900,2010,1640,2490,2670,2360,1870,1720,3720,4550,4670,4620,4360,4630,4700,4610,4810,5120,4270,4570,3990,4150,275180
TKB2201,MERI,GG,MERI,kWh,I,F,27/04/1999,4380,3900,4150,4160,4200,4440,3800,3190,1960,1870,1750,1350,1860,1630,1820,1720,1250,470,680,880,850,1230,900,860,710,710,1260,1060,930,1150,1300,1460,1100,1080,2450,4850,4270,4790,4730,4650,4880,4580,4310,4430,4780,4850,5130,4960,127720
TKB2201,MERI,GG,MERI,kWh,I,F,28/04/1999,4640,4110,4820,4660,5230,4800,5400,4870,4750,4730,4810,4770,5050,4330,4820,4780,4660,4360,4750,4640,4790,5190,4630,5010,4690,4260,4820,5220,13580,33820,42140,56230,55200,57340,56610,63890,63000,63300,62350,62880,64180,63090,63400,64430,63260,63410,65890,66090,1277680
TKB2201,MERI,GG,MERI,kWh,I,F,29/04/1999,66720,65790,66660,66160,65980,66070,66480,63230,60760,59470,63060,64070,66280,43720,4930,10220,17940,23830,23960,24180,25340,8920,870,260,460,980,1060,850,970,760,1040,810,11060,51320,61170,64750,63650,62280,61530,60730,61550,61220,61140,62190,60450,62020,61270,61360,1959520
TKB2201,MERI,GG,MERI,kWh,I,F,30/04/1999,60940,61240,61830,60710,56680,54310,61630,58860,50210,25960,6290,6380,5180,51140,63270,63020,62510,66130,67530,65270,66600,66030,66200,66890,65230,67510,66220,65550,65020,66610,67520,66010,66480,65720,66140,66340,65700,66290,65750,66060,66400,66040,66750,65980,65800,67000,65620,66040,2862590
TKB2201,MERI,GG,MERI,kWh,I,F,01/05/1999,66160,66480,65970,66160,29870,19180,31780,33790,31130,29770,33920,46000,43480,43970,59810,65510,66230,65050,63140,63780,63050,62870,63370,63330,62820,65390,66580,65950,64910,65620,67350,66860,67300,65990,65570,65960,66400,67220,66900,67060,68050,67370,66390,66340,67670,67610,67750,17690,2790550
TKB2201,MERI,GG,MERI,kWh,I,F,02/05/1999,4830,4040,4670,4210,1940,2400,2890,2240,2380,2440,1860,1960,2570,1820,28150,33830,34410,34140,34380,33440,34430,44850,62550,61450,61010,60840,61160,61850,61960,61360,61280,61250,62070,61430,61480,60740,60750,61450,61800,66120,72960,74430,53140,18530,9980,8110,10810,9330,1685720
TKB2201,MERI,GG,MERI,kWh,I,F,03/05/1999,9740,8270,8910,11020,9990,9400,9470,9960,8340,10170,10570,8420,9900,16110,68330,67470,68470,66770,65530,65950,66370,65880,66450,66130,65770,66220,66680,66510,66030,65840,66210,67040,65610,66700,66170,66300,65740,65940,66040,64840,65180,63720,66240,66330,63510,62480,65470,63080,2381270
TKB2201,MERI,GG,MERI,kWh,I,F,04/05/1999,63440,64270,60290,35300,34630,35810,35070,25220,24900,24310,24800,23350,33140,64430,63260,61330,61290,60960,60220,61810,61820,61740,64800,63980,65020,67910,68280,68160,68810,67620,68220,68900,68120,68240,68190,67730,67650,68280,68580,68460,67470,67840,69060,66260,64620,64920,65450,40970,2764930
TKB2201,MERI,GG,MERI,kWh,I,F,05/05/1999,36750,20770,5500,6280,5060,5450,5720,6860,6460,5540,5640,5330,5330,43280,65940,66420,66560,65570,66200,65260,65950,66850,67240,66420,65810,66040,66710,66460,66280,65560,66440,66290,65580,66450,66360,66180,66650,66250,66340,66760,65890,65270,65890,66090,66170,66790,66740,67340,2416720
TKB2201,MERI,GG,MERI,kWh,I,F,06/05/1999,59360,22540,25870,27000,22950,9460,9080,7920,8020,7670,8010,7160,26780,65780,68040,67350,65590,63910,66160,65310,66130,66760,67310,69060,66790,68130,68620,68580,68080,66900,65790,68890,67050,67420,47140,52060,19820,28250,54900,65700,61380,57990,58410,58510,62700,66800,65560,65820,2414510
TKB2201,MERI,GG,MERI,kWh,I,F,07/05/1999,65940,67060,65790,65690,66550,67100,66180,65490,65510,66670,66290,66960,65490,66820,66000,66960,66770,65700,65290,65760,66550,67640,68950,67390,66460,67540,67790,67830,68350,68060,67400,68040,68100,67030,66210,67950,67290,65840,66310,67270,67880,67720,68180,66940,66040,67530,67230,66830,3210370
TKB2201,MERI,GG,MERI,kWh,I,F,08/05/1999,67050,67190,67290,67820,67260,66920,67060,66920,67060,66900,68460,67140,66720,26480,3540,1320,2320,1280,690,0,1100,2690,2360,1710,2670,2400,1820,22330,29570,34120,36110,37120,36410,36840,36500,36170,36290,36980,36150,40630,66410,68680,68020,66510,67090,67940,66490,66810,1917340
TKB2201,MERI,GG,MERI,kWh,I,F,09/05/1999,68530,72200,71540,70960,71270,71550,71070,68400,66750,67450,69660,72210,70880,35450,9010,10200,7770,12420,31480,35610,57660,65750,66590,27140,1540,4550,7230,22480,26670,32470,32900,54990,66120,65720,66220,65470,65430,65970,67060,66280,65960,66510,66540,65140,66400,66410,65980,65920,2511510
TKB2201,MERI,GG,MERI,kWh,I,F,10/05/1999,65180,67050,67100,65840,66300,66110,66550,66230,65910,66370,66090,66230,66540,65760,66430,65420,66220,65820,66410,70850,70930,72480,70480,65940,66470,66130,67050,67450,70010,71710,72200,71860,69710,68350,67790,68150,67540,68290,66930,68520,68990,68350,67750,68420,68110,69320,67770,66460,3251570